Zurück zum Katalog

GRUS-3G

AktivWissenschaftSSO
NORAD 69878·PAYLOAD·🇨🇦 Canada

Gestartet Jul 7, 2026 von Vandenberg Space Force Base

Loading…

Nächste Überflüge (nächste 24 Stunden)

TLE

AktuellSource: Space-Track

Epoche: Sep 14, 2026, 03:54 UTC

1 69878U 26156K   26257.16258915  .00000618  00000-0  66747-4 0  9996
2 69878  97.7431 156.4413 0005293 285.2350  74.8283 14.91803305 10264

Verfolge GRUS-3G in Echtzeit mit AllMySat

Download on the App Store